Wind_Speed
1 4 8 12 10 2 5 4 5 3 3 2 6 7 7 4 7 7 6 6 6 6 8 15 19 21 25 28 29 29 29 27 22 24 29 31 32 29 29 26 24 24 22 21
4 7 10 4 4 5 3 3 5 5 3 5 4 9 3 4 3 4 7 6 5 4 6 13 20 24 27 27 30 31 29 28 29 29 27 23 26 28 26 25 23 22 20 20
8 5 6 7 5 6 5 6 4 7 2 1 2 7 3 4 5 5 4 4 5 5 5 6 14 19 22 27 29 30 30 29 26 25 22 21 22 24 24 25 24 24 22 20
6 4 6 4 6 7 5 8 6 4 3 4 1 4 4 4 5 5 5 5 6 5 3 5 9 15 18 20 24 27 28 29 28 29 29 30 31 29 25 27 26 27 27 27
7 7 5 7 6 7 6 5 6 4 4 1 3 1 6 4 5 6 6 5 5 5 5 5 8 12 14 17 21 24 26 28 26 27 29 32 34 30 27 26 27 28 28 29
4 1 6 7 2 5 9 6 7 5 3 1 8 7 3 5 4 5 6 7 8 8 7 7 8 11 14 16 18 21 24 25 25 26 28 28 28 26 26 25 25 25 25 26
1 4 2 3 5 3 5 6 1 3 1 5 1 2 8 7 5 7 14 12 8 6 6 6 8 9 11 14 16 18 21 24 23 25 25 24 25 24 24 23 22 22 23 24
7 3 10 6 6 7 6 6 5 7 4 4 1 6 6 2 4 6 11 10 7 7 6 6 7 8 9 11 13 16 18 21 20 20 21 21 21 22 21 20 20 20 20 20
6 4 1 2 3 4 5 4 4 6 2 2 5 4 3 1 3 5 7 8 9 8 7 7 9 10 11 11 11 12 15 17 16 17 17 18 18 17 17 16 17 17 17 17
6 3 1 2 3 4 3 6 4 3 1 5 4 4 5 6 8 6 8 11 9 8 8 7 13 12 11 11 11 11 12 13 13 13 14 15 14 14 14 14 16 16 17 17
6 3 2 4 6 9 3 3 3 4 4 5 2 5 5 7 8 14 12 11 10 9 8 7 14 13 12 12 12 12 11 11 11 10 10 10 10 10 11 13 15 17 17 19
8 5 4 6 2 2 1 6 6 5 5 2 2 8 3 3 10 14 13 12 7 7 8 11 17 17 16 16 15 14 12 11 9 8 7 5 5 6 8 11 13 15 16 17
9 2 2 5 3 3 4 4 3 4 4 7 5 8 3 4 7 8 9 8 8 8 8 8 16 19 20 19 18 17 15 13 10 8 6 3 1 4 7 10 14 17 19 22
5 5 7 9 6 6 5 5 5 5 4 5 12 13 2 4 7 6 7 7 7 6 7 7 8 18 24 22 21 19 18 16 13 10 7 5 4 5 8 12 15 19 21 24
4 6 3 3 3 4 6 7 11 10 11 12 14 14 8 11 10 10 9 6 6 8 7 7 9 16 23 21 20 20 19 17 15 14 13 10 8 7 9 12 17 20 22 25
3 2 3 1 2 4 3 9 8 15 5 5 4 12 5 4 3 5 8 8 7 7 7 8 8 12 19 23 23 24 22 20 18 18 17 14 11 9 11 15 18 20 23 26
6 6 4 5 3 5 8 11 14 6 7 10 12 13 5 5 8 9 9 8 8 8 8 7 10 18 22 25 25 25 26 22 22 21 18 16 12 11 13 17 19 22 24 26
6 5 1 4 3 7 3 4 2 13 6 6 1 4 6 5 6 6 5 7 9 8 8 7 13 17 20 22 22 23 22 22 21 21 19 16 13 13 15 17 19 22 24 25
2 5 3 4 6 7 3 5 7 7 9 10 11 12 6 5 4 5 8 8 8 9 14 17 16 16 16 16 17 18 19 21 21 22 20 16 14 14 16 18 20 21 23 24
4 3 5 3 4 8 2 2 5 5 8 9 12 10 7 6 2 5 6 6 9 14 13 15 14 13 15 17 17 18 21 23 25 23 19 15 13 15 17 18 19 19 20 23
3 1 7 4 5 7 5 5 4 6 7 3 6 5 6 5 6 4 4 5 15 19 18 16 15 17 18 17 19 23 25 27 24 19 16 14 14 15 16 17 16 19 20 22
7 8 4 2 3 10 7 3 8 5 2 5 6 6 8 7 7 5 7 6 10 16 18 19 19 21 21 20 21 25 27 25 20 17 15 14 14 14 15 16 16 17 19 22
3 6 6 10 6 0 12 4 6 5 6 5 6 6 8 8 7 9 8 8 12 17 23 21 23 25 22 22 24 26 28 22 19 17 16 15 15 14 14 16 16 18 18 19
4 3 2 3 4 5 9 5 2 6 7 5 6 6 7 7 9 8 6 7 10 22 25 26 20 22 26 25 25 26 23 21 19 17 16 14 15 14 14 15 16 17 18 18
4 8 6 1 0 2 5 7 7 7 6 5 6 8 9 8 8 7 7 7 15 21 24 21 22 26 29 26 25 24 22 19 18 17 15 15 15 15 16 16 16 17 17 17
6 7 5 4 8 6 5 10 10 9 9 9 8 5 7 8 9 6 8 16 19 20 22 19 21 24 25 23 24 23 20 18 17 17 16 16 16 15 16 17 19 15 15 15
Wind_Direction
38 125 208 199 200 149 149 183 214 248 230 164 244 244 285 48 85 103 99 84 64 44 15 49 59 67 73 74 73 73 78 81 91 89 82 76 72 70 69 66 60 53 46 42
61 224 223 148 163 185 143 169 238 286 249 169 280 264 103 27 56 143 136 119 102 70 24 35 54 60 64 68 71 72 74 78 81 83 86 89 82 74 72 66 58 54 52 50
176 210 143 160 166 174 198 199 192 220 1 274 347 291 182 53 79 68 72 116 105 108 81 32 49 60 65 68 73 76 79 82 89 94 99 100 91 80 70 63 61 57 53 50
231 253 178 174 200 150 200 201 193 171 114 230 104 271 297 169 155 158 160 148 145 137 87 64 65 67 67 72 80 82 82 83 87 92 91 90 87 81 74 72 70 66 61 57
232 173 182 205 203 168 211 126 161 154 145 93 274 329 257 133 227 200 199 184 171 156 139 111 83 76 74 76 77 82 83 82 82 85 88 90 90 90 85 77 71 65 61 58
236 257 170 203 112 173 145 80 54 54 76 295 228 186 253 195 206 165 173 191 191 181 169 144 121 114 106 102 95 90 88 86 85 84 84 86 89 85 80 72 67 62 58 53
203 215 204 157 91 58 98 105 19 353 3 231 342 159 245 188 192 189 184 188 195 196 170 171 156 138 125 116 109 102 99 93 91 87 84 83 82 79 75 69 64 58 51 45
169 232 168 190 191 172 181 163 156 207 201 252 127 233 266 295 326 266 161 168 174 193 201 188 169 150 133 119 113 111 103 100 96 93 91 88 81 77 74 66 58 53 46 38
163 263 69 86 142 144 187 187 158 106 57 60 209 278 248 29 43 91 135 152 191 200 198 192 181 174 156 144 136 125 116 110 103 98 96 87 81 74 67 59 51 43 35 27
205 131 171 159 111 35 160 159 79 7 235 263 255 256 223 220 201 161 183 193 203 200 195 193 195 188 175 164 149 139 132 125 118 107 94 87 77 66 57 45 37 28 20 12
156 136 202 129 205 171 145 179 74 136 154 191 283 252 213 220 172 180 203 210 200 199 199 192 199 196 188 179 170 161 156 143 132 117 99 87 72 56 42 32 23 14 5 1
194 136 164 194 108 41 320 200 162 184 222 256 140 262 13 283 176 177 193 210 210 200 197 195 200 199 193 194 187 181 171 164 152 138 124 98 66 39 20 13 6 358 353 351
178 211 84 359 31 32 208 205 144 101 81 197 174 256 41 73 156 184 188 202 199 203 202 194 198 199 202 204 199 195 191 185 180 174 169 167 338 352 355 352 351 350 346 343
136 162 170 206 181 137 178 192 194 163 182 171 232 262 208 223 215 189 198 195 198 216 217 206 192 203 210 211 207 204 205 203 202 205 214 233 265 309 331 336 338 338 337 336
178 192 140 127 129 159 190 192 192 194 216 217 253 229 188 205 203 201 202 196 212 231 225 209 206 210 212 214 214 216 218 216 218 223 227 234 250 280 306 318 326 329 331 332
351 163 96 283 97 60 253 233 182 208 189 245 255 263 169 187 163 174 206 218 240 245 234 223 216 203 211 216 219 222 224 224 225 225 226 231 242 269 296 311 318 321 325 327
163 135 124 229 87 83 284 216 198 176 190 188 213 236 147 194 209 209 218 214 219 230 232 223 211 210 216 223 227 228 230 227 225 224 225 228 242 269 292 306 315 321 326 327
134 120 148 133 79 223 253 32 58 216 229 197 30 209 197 184 205 211 194 194 219 221 221 219 219 221 227 230 235 238 236 228 224 221 220 229 247 272 293 304 313 319 321 324
133 142 141 160 200 327 231 183 156 165 247 193 212 236 183 156 126 248 208 207 210 205 207 210 215 219 226 231 237 236 232 224 215 216 220 231 254 278 293 303 310 315 316 319
48 43 202 133 206 220 346 119 126 106 267 206 196 218 156 127 161 250 192 195 211 211 215 224 222 224 231 237 238 230 222 213 216 218 225 240 261 281 293 301 308 313 316 315
120 80 216 192 230 281 217 196 159 124 252 199 175 161 148 177 201 213 163 212 221 218 218 209 211 224 237 245 236 226 223 220 222 223 232 248 267 280 289 297 306 308 311 310
156 166 194 124 201 262 158 68 171 195 34 159 171 175 182 211 238 228 234 243 233 218 214 216 228 237 245 245 232 226 224 227 223 227 237 250 265 276 287 292 299 302 307 308
218 190 181 192 201 161 186 185 187 163 150 196 180 201 198 203 229 234 229 226 228 229 226 234 236 242 246 242 233 227 231 223 222 229 241 255 264 272 280 286 293 298 303 305
258 161 210 107 188 196 209 233 234 190 208 184 213 201 187 215 234 246 248 240 226 234 236 244 246 241 244 238 231 232 229 223 226 235 245 255 264 270 273 278 285 291 295 297
191 138 157 268 141 86 275 233 232 214 219 214 203 213 214 212 256 236 251 243 241 241 247 251 248 245 244 236 224 223 223 223 229 239 247 253 260 267 274 276 282 284 289 290
176 173 167 207 195 165 200 219 225 217 224 225 223 243 229 200 234 223 241 247 249 251 261 258 247 242 242 231 220 218 220 228 235 241 246 253 257 262 269 278 285 275 279 281
Height
820 829 833 828 826 824 829 836 834 830 825 826 829 831 822 834 841 845 848 849 850 849 848 844 839 834 829 825 822 820 819 820 821 821 823 826 831 835 834 836 837 838 838 838
828 830 815 818 824 826 828 833 837 832 827 830 828 828 832 841 844 845 847 850 851 852 851 848 845 840 836 833 829 826 824 824 822 823 826 829 834 837 839 840 841 840 839 839
823 811 812 816 824 829 833 835 834 830 828 828 830 831 832 846 848 850 851 850 851 852 852 851 849 846 843 839 836 834 831 830 828 828 830 832 834 837 840 842 842 842 843 843
819 809 810 818 819 821 828 823 823 827 833 844 832 843 825 839 846 848 851 853 852 852 852 852 852 849 847 845 843 841 840 838 836 833 833 833 836 841 848 847 848 845 845 846
808 811 813 814 811 813 817 819 826 827 837 837 836 845 829 841 842 848 853 855 855 854 853 853 853 852 852 851 850 848 846 843 845 842 839 840 841 845 849 850 851 850 850 849
805 802 806 804 807 807 817 823 834 846 849 856 835 834 827 834 823 841 847 852 851 850 850 850 851 850 848 849 850 849 848 850 849 848 846 846 847 850 850 852 853 854 854 853
805 803 799 800 810 809 813 825 842 850 861 843 840 842 817 815 824 826 836 845 851 853 851 850 850 852 852 850 850 850 850 850 850 849 851 852 852 850 852 855 856 855 855 855
811 809 801 797 798 805 815 813 832 845 854 843 841 835 812 826 831 830 831 842 849 851 852 852 854 855 856 856 855 854 853 852 853 852 852 853 855 854 855 857 857 858 857 858
804 795 793 793 794 796 813 817 813 840 905 870 824 815 817 830 831 835 838 842 846 847 850 852 852 851 851 854 856 855 852 854 855 856 857 856 855 857 857 859 857 857 858 859
781 792 793 795 794 800 801 809 821 840 847 868 817 815 802 818 824 835 842 838 840 841 846 848 850 851 851 853 855 856 855 855 856 857 856 856 858 858 858 859 858 858 857 857
781 781 798 795 798 799 808 809 817 817 830 840 849 809 806 803 815 825 834 835 834 837 841 843 846 848 851 851 851 853 854 855 856 858 857 857 858 859 860 859 858 858 858 856
775 785 811 793 795 800 797 799 801 803 823 848 838 793 811 806 810 816 822 829 831 833 837 839 842 845 845 847 849 852 853 854 855 855 856 857 857 858 858 857 857 857 856 855
770 791 820 804 794 798 798 802 802 811 821 839 833 799 805 810 814 816 821 825 828 829 832 834 836 839 842 844 846 848 849 851 853 855 855 856 857 856 856 855 855 853 852 851
758 780 778 771 777 786 799 801 805 805 826 818 792 789 800 809 813 818 818 820 821 825 827 829 833 834 836 839 840 843 845 847 849 851 851 853 854 853 852 852 851 850 849 847
760 775 781 780 779 782 783 790 801 801 787 793 781 792 799 799 804 807 810 816 818 820 822 826 827 827 830 835 836 839 842 843 845 846 848 849 850 850 849 849 848 847 845 843
768 782 787 798 792 796 795 790 795 787 792 801 800 793 791 793 799 806 809 812 813 814 817 819 821 824 826 828 831 834 837 840 841 842 844 845 845 845 845 845 844 843 841 839
771 783 789 778 810 803 791 780 787 787 788 782 790 776 801 801 802 804 808 810 812 813 813 815 816 817 819 824 826 829 831 834 836 837 839 840 841 841 841 841 840 838 837 835
772 785 782 812 810 789 758 783 779 771 775 789 796 802 797 798 800 800 803 806 808 809 810 811 813 814 816 820 822 824 827 829 830 833 834 836 836 836 836 836 836 834 832 830
772 772 797 794 798 777 764 784 786 780 778 785 785 782 790 797 800 800 800 800 802 803 804 807 808 810 812 815 817 818 821 823 826 828 830 831 830 830 831 831 831 830 828 827
774 771 758 810 787 777 763 774 775 774 781 785 780 784 794 797 812 799 793 794 796 797 800 802 804 807 809 811 812 814 816 818 819 823 825 825 825 826 827 827 827 826 825 823
783 785 764 788 780 784 779 779 774 794 776 790 785 788 796 798 792 786 785 789 788 790 794 797 800 801 803 806 807 809 811 811 815 818 820 820 821 822 823 823 823 822 821 818
770 776 785 791 787 772 772 777 775 768 774 774 778 779 784 783 783 784 783 786 787 788 788 791 794 795 797 798 800 802 804 807 810 813 815 816 817 818 818 818 818 818 816 813
757 756 768 764 760 762 762 760 760 761 768 772 773 774 776 780 781 779 779 780 781 782 783 784 787 788 790 791 793 795 797 802 806 808 810 811 812 813 814 814 813 812 812 809
761 761 758 759 760 759 760 758 758 760 761 763 767 771 775 777 777 773 772 773 775 775 777 778 781 782 783 785 787 790 794 798 800 802 805 806 808 809 810 809 809 807 806 804
745 754 763 765 754 755 754 755 752 755 758 762 764 765 767 771 769 768 769 768 768 769 770 773 774 775 775 778 782 785 789 792 795 797 800 802 803 804 805 804 803 801 800 799
741 741 747 755 742 741 743 744 747 753 754 755 758 758 758 762 763 763 763 761 762 763 764 766 767 768 769 772 777 781 784 788 791 793 795 797 799 799 799 798 797 797 795 794